This demonstration page uses our WeatherBlox Daily Observations layout. Learn more.

Left ArrowRight Arrow

39.92423, -83.80882

Hourly Observations for January 3, 2020

Temp ( °F °C ) Dew Point ( °F °C ) Humidity (%) Winds ( mph kmh ) Pressure ( in mb ) Visibility ( mi km ) Precip ( " mm )
12:56 am 00:56 Cloudy with Light Rain 48 8.9 48 8.9 100 100 SSW 7 11 29.73 1007 10 16.0934 0.07 1.778
1:56 am 01:56 Cloudy with Light Rain 48 8.9 48 8.9 100 100 WNW 3 6 29.75 1007 7 11.26538 0.12 3.048
2:56 am 02:56 Cloudy with Light Rain 48 8.9 48 8.9 100 100 Calm 29.72 1007 4 6.43736 0.1 2.54
3:56 am 03:56 Cloudy with Rain 48 8.9 48 8.9 100 100 SW 6 9 29.74 1007 4 6.43736 0.1 2.54
4:29 am 04:29 Cloudy with Rain 48 9 48 9 100 100 SW 5 7 29.74 1007 7 11.26538 0.04 1.016
4:52 am 04:52 Cloudy with Light Rain 48 9 48 9 100 100 SSW 6 9 29.74 1007 5 8.0467 0.07 1.778
4:56 am 04:56 Cloudy with Light Rain 48 8.9 48 8.9 100 100 SSW 5 7 29.73 1007 6 9.65604 0.08 2.032
5:56 am 05:56 Cloudy with Light Rain 48 8.9 48 8.9 100 100 SW 6 9 29.76 1008 8 12.87472 0.02 0.508
6:22 am 06:22 Cloudy with Light Rain 48 9 48 9 100 100 SSW 5 7 29.76 1008 6 9.65604 0.01 0.254
6:39 am 06:39 Cloudy with Light Rain 48 9 48 9 100 100 SSW 3 6 29.75 1007 5 8.0467 0.02 0.508
6:56 am 06:56 Cloudy with Light Rain 48 8.9 48 8.9 100 100 SSW 6 9 29.77 1008 4 6.43736 0.02 0.508
7:15 am 07:15 Cloudy with Light Rain 48 9 48 9 100 100 SW 6 9 29.77 1008 2 3.21868 0.01 0.254
7:25 am 07:25 Cloudy with Rain 48 9 48 9 100 100 SW 5 7 29.77 1008 1.75 2.816345 0.02 0.508
7:35 am 07:35 Cloudy with Light Rain 48 9 48 9 100 100 SW 6 9 29.78 1008 2.5 4.02335 0.03 0.762
7:45 am 07:45 Cloudy with Rain 48 9 48 9 100 100 WSW 7 11 29.79 1009 3 4.82802 0.04 1.016
7:56 am 07:56 Cloudy with Rain 48 8.9 48 8.9 100 100 WSW 7 11 29.79 1009 3 4.82802 0.05 1.27
8:04 am 08:04 Cloudy with Rain 48 9 48 9 100 100 SW 6 9 29.79 1009 2 3.21868 0.01 0.254
8:22 am 08:22 Cloudy with Light Rain 48 9 48 9 100 100 WSW 6 9 29.8 1009 4 6.43736 0.03 0.762
8:56 am 08:56 Cloudy with Light Rain 48 8.9 48 8.9 100 100 WSW 5 7 29.81 1010 3 4.82802 0.04 1.016
9:56 am 09:56 Cloudy with Light Rain 49 9.4 49 9.4 100 100 SSW 6 9 29.8 1009 7 11.26538 0.01 0.254
10:06 am 10:06 Cloudy with Mist and Fog 48 9 48 9 100 100 SW 7 11 29.81 1009 1.75 2.816345 0.001 0.001
10:25 am 10:25 Cloudy with Mist and Fog 48 9 48 9 100 100 S 5 7 29.8 1009 2 3.21868 0.001 0.001
10:40 am 10:40 Cloudy with Mist and Fog 48 9 48 9 100 100 S 6 9 29.78 1008 1 1.60934 0.001 0.001
10:45 am 10:45 Cloudy with Fog 50 10 50 10 100 100 S 7 11 29.78 1009 0.5 0.80467 0.001 0.001
10:56 am 10:56 Cloudy with Mist and Fog 50 10 50 10 100 100 S 7 11 29.79 1009 1 1.60934 0.001 0.001
11:04 am 11:04 Cloudy with Mist and Fog 50 10 50 10 100 100 SW 7 11 29.79 1009 2 3.21868 0 0
11:20 am 11:20 Cloudy with Mist and Fog 50 10 50 10 100 100 SW 9 15 29.79 1009 1.5 2.41401 0 0
11:40 am 11:40 Cloudy with Mist and Fog 50 10 50 10 100 100 SW 8 13 29.79 1009 2 3.21868 0 0
11:48 am 11:48 Cloudy with Mist and Fog 50 10 50 10 100 100 SW 10 17 29.78 1009 1.75 2.816345 0 0
11:56 am 11:56 Cloudy with Mist and Fog 50 10 50 10 100 100 SW 10 17 29.78 1008 1.5 2.41401 0 0
12:05 pm 12:05 Cloudy with Mist and Fog 52 11 52 11 100 100 SW 7 11 29.77 1008 3 4.82802 0 0
12:39 pm 12:39 Cloudy with Mist and Fog 52 11 52 11 100 100 WSW 7 11 29.76 1008 2 3.21868 0 0
12:56 pm 12:56 Cloudy with Mist and Fog 51 10.6 51 10.6 100 100 SW 6 9 29.75 1007 2 3.21868 0 0
1:28 pm 13:28 Cloudy with Light Rain 52 11 52 11 100 100 WSW 8 13 29.75 1007 3 4.82802 0.001 0.001
1:43 pm 13:43 Cloudy with Light Rain 52 11 52 11 100 100 WSW 7 11 29.73 1007 5 8.0467 0.001 0.001
1:56 pm 13:56 Cloudy with Light Rain 51 10.6 51 10.6 100 100 W 7 11 29.73 1007 6 9.65604 0.001 0.001
2:22 pm 14:22 Cloudy with Light Rain 52 11 52 11 100 100 WSW 6 9 29.73 1007 6 9.65604 0.001 0.001
2:45 pm 14:45 Cloudy with Light Rain 50 10 50 10 100 100 NNW 5 7 29.73 1007 5 8.0467 0.01 0.254
2:56 pm 14:56 Cloudy with Light Rain 50 10 50 10 100 100 NNW 6 9 29.73 1007 5 8.0467 0.01 0.254
3:56 pm 15:56 Cloudy with Light Rain 49 9.4 49 9.4 100 100 NW 7 11 29.75 1008 5 8.0467 0.001 0.001
4:56 pm 16:56 Cloudy with Rain 48 8.9 48 8.9 100 100 N 6 9 29.76 1008 2.5 4.02335 0.03 0.762
5:07 pm 17:07 Cloudy with Light Rain 48 9 48 9 100 100 N 6 9 29.78 1008 3 4.82802 0.001 0.001
5:14 pm 17:14 Cloudy with Light Rain 48 9 48 9 100 100 N 6 9 29.78 1008 3 4.82802 0.01 0.254
5:56 pm 17:56 Cloudy with Light Rain 47 8.3 47 8.3 100 100 Calm 29.77 1008 5 8.0467 0.03 0.762
6:35 pm 18:35 Cloudy with Light Rain 46 8 46 8 100 100 Calm 29.78 1008 3 4.82802 0.03 0.762
6:42 pm 18:42 Cloudy with Light Rain 46 8 46 8 100 100 Calm 29.78 1008 4 6.43736 0.03 0.762
6:56 pm 18:56 Cloudy with Light Rain 47 8.3 47 8.3 100 100 N 5 7 29.78 1008 3 4.82802 0.04 1.016
7:27 pm 19:27 Cloudy with Light Rain 46 8 46 8 100 100 N 5 7 29.77 1008 3 4.82802 0.01 0.254
7:42 pm 19:42 Cloudy with Light Rain 46 8 46 8 100 100 N 5 7 29.78 1008 4 6.43736 0.02 0.508
7:56 pm 19:56 Cloudy with Light Rain 47 8.3 47 8.3 100 100 N 5 7 29.76 1008 5 8.0467 0.02 0.508
8:56 pm 20:56 Cloudy with Light Rain 46 7.8 46 7.8 100 100 N 7 11 29.76 1008 4 6.43736 0.02 0.508
9:56 pm 21:56 Cloudy with Light Rain 45 7.2 45 7.2 100 100 NNW 6 9 29.78 1008 6 9.65604 0.06 1.524
10:56 pm 22:56 Cloudy with Rain 45 7.2 45 7.2 100 100 NNW 5 7 29.79 1009 7 11.26538 0.03 0.762
11:21 pm 23:21 Cloudy with Light Rain 45 7 45 7 100 100 NNW 7 11 29.79 1009 9 14.48406 0.02 0.508
11:56 pm 23:56 Cloudy 44 6.7 44 6.7 100 100 NNW 6 9 29.78 1009 10 16.0934 0.02 0.508

Powered by AerisWeather